�N����,����,�~����,�C��,���x,�C��,����,���ϕ���,�ő�u�ԕ���,�ő厞����,���˗�,�I�_���x,�n�����x,�ő啗���N��,DTYPE
"18/11/22","00:10",0.0,9.8,87.7,1013.0,297.8,1.6,1.9,323.8,0.00,7.9,12.8,"00:05:20",1
"18/11/22","00:20",0.0,9.7,88.1,1013.0,296.1,1.7,2.1,318.8,0.00,7.9,12.9,"00:12:16",1
"18/11/22","00:30",0.0,9.7,88.5,1013.3,300.0,1.6,2.1,313.1,0.00,7.9,12.9,"00:28:00",1
"18/11/22","00:40",0.0,9.7,88.6,1013.0,301.3,1.5,2.0,311.9,0.00,8.0,12.9,"00:30:32",1
"18/11/22","00:50",0.0,9.8,88.6,1012.8,315.7,1.7,2.4,317.0,0.00,8.0,13.0,"00:48:48",1
"18/11/22","01:00",0.0,9.8,88.3,1012.8,289.7,1.5,1.9,304.2,0.00,8.0,13.0,"00:51:20",1
"18/11/22","01:10",0.0,9.9,88.4,1012.8,317.8,2.0,2.9,330.7,0.00,8.1,12.9,"01:07:36",1
"18/11/22","01:20",0.0,9.9,88.2,1013.0,305.9,1.6,2.5,323.1,0.00,8.1,12.7,"01:10:32",1
"18/11/22","01:30",0.0,10.0,87.8,1013.0,320.1,2.1,3.5,324.4,0.00,8.1,12.8,"01:26:24",1
"18/11/22","01:40",0.0,10.2,86.7,1012.3,339.6,1.8,3.9,334.0,0.00,8.1,12.9,"01:31:52",1
"18/11/22","01:50",0.0,10.0,86.9,1011.4,316.8,1.0,1.8,312.9,0.00,8.0,12.8,"01:44:08",1
"18/11/22","02:00",0.0,9.8,87.5,1011.9,289.5,1.2,1.8,275.6,0.00,7.9,12.7,"01:58:48",1
"18/11/22","02:10",0.0,9.8,88.0,1011.4,282.3,1.3,2.1,266.9,0.00,7.9,12.9,"02:00:32",1
"18/11/22","02:20",0.0,9.9,88.1,1011.9,264.1,1.2,1.8,249.8,0.00,8.1,12.9,"02:18:56",1
"18/11/22","02:30",0.0,10.0,87.8,1011.9,268.2,1.5,2.2,246.5,0.00,8.1,12.7,"02:22:24",1
"18/11/22","02:40",0.0,9.9,87.9,1012.1,298.1,1.8,3.6,328.0,0.00,8.0,12.7,"02:39:54",1
"18/11/22","02:50",0.0,10.1,87.3,1011.9,324.4,3.2,5.2,325.8,0.00,8.1,12.7,"02:49:22",1
"18/11/22","03:00",0.0,10.0,87.0,1012.1,313.6,3.1,5.6,329.2,0.00,8.0,12.8,"02:56:10",1
"18/11/22","03:10",0.0,10.1,86.7,1011.6,289.8,1.8,3.2,313.2,0.00,8.0,12.8,"03:02:24",1
"18/11/22","03:20",0.0,10.3,85.9,1011.2,330.7,2.3,4.3,317.6,0.00,8.1,12.6,"03:11:04",1
"18/11/22","03:30",0.0,10.4,85.1,1010.9,328.6,2.6,5.7,332.6,0.00,8.0,12.5,"03:26:32",1
"18/11/22","03:40",0.0,10.5,84.2,1010.9,311.2,2.3,4.0,343.4,0.00,8.0,12.7,"03:32:00",1
"18/11/22","03:50",0.0,10.6,83.4,1010.9,322.3,1.2,2.2,304.1,0.00,7.9,12.5,"03:42:24",1
"18/11/22","04:00",0.0,10.6,83.1,1010.9,347.8,1.0,1.7,325.3,0.00,7.9,12.5,"03:55:04",1
"18/11/22","04:10",0.0,10.5,83.5,1010.7,323.2,1.1,1.9,316.7,0.00,7.9,12.6,"04:08:10",1
"18/11/22","04:20",0.0,10.5,84.5,1010.9,328.9,0.5,1.3,338.3,0.00,8.0,12.4,"04:10:40",1
"18/11/22","04:30",0.0,10.5,84.7,1010.2,301.6,1.2,1.9,318.0,0.00,8.1,12.7,"04:26:40",1
"18/11/22","04:40",0.0,10.3,85.6,1010.2,298.0,1.2,1.7,310.2,0.00,8.0,12.6,"04:34:32",1
"18/11/22","04:50",0.0,10.2,86.8,1010.2,308.3,1.7,2.4,313.4,0.00,8.1,12.7,"04:44:08",1
"18/11/22","05:00",0.0,10.1,87.4,1010.2,316.5,2.0,2.6,323.4,0.00,8.1,12.6,"04:53:06",1
"18/11/22","05:10",0.0,10.1,87.9,1010.2,323.9,2.0,2.7,335.2,0.00,8.2,12.5,"05:07:38",1
"18/11/22","05:20",0.0,9.9,88.5,1010.2,310.0,1.7,2.9,329.1,0.00,8.1,12.7,"05:18:00",1
"18/11/22","05:30",0.0,9.9,88.5,1009.7,328.6,2.5,3.7,339.0,0.00,8.1,12.6,"05:26:34",1
"18/11/22","05:40",0.0,10.1,87.9,1009.7,319.1,2.5,4.2,309.4,0.00,8.2,12.7,"05:34:58",1
"18/11/22","05:50",0.0,10.0,87.6,1009.7,305.7,2.1,3.5,346.4,0.00,8.1,12.7,"05:42:16",1
"18/11/22","06:00",0.0,10.0,87.4,1010.0,308.4,2.1,2.8,312.1,0.00,8.0,12.6,"05:51:52",1
"18/11/22","06:10",0.0,10.1,87.0,1009.7,322.0,3.0,4.2,328.2,0.00,8.1,12.4,"06:04:48",1
"18/11/22","06:20",0.0,10.2,85.9,1010.0,328.1,3.2,4.4,322.8,0.00,8.0,12.5,"06:14:34",1
"18/11/22","06:30",0.0,10.1,85.2,1009.5,328.3,2.6,4.3,325.3,0.00,7.8,12.7,"06:28:02",1
"18/11/22","06:40",0.0,10.2,84.7,1010.0,320.5,2.7,3.6,322.8,0.00,7.8,12.5,"06:30:16",1
"18/11/22","06:50",0.0,10.2,84.8,1009.7,331.2,3.0,4.8,337.1,0.00,7.8,12.7,"06:49:56",1
"18/11/22","07:00",0.0,10.0,85.8,1009.5,334.3,3.2,4.5,320.4,0.00,7.8,12.6,"06:52:52",1
"18/11/22","07:10",0.0,9.9,86.8,1009.7,329.3,3.4,4.9,334.6,0.00,7.8,12.7,"07:09:42",1
"18/11/22","07:20",0.0,9.9,87.3,1009.7,310.0,2.8,5.1,328.1,0.00,7.9,12.6,"07:10:26",1
"18/11/22","07:30",0.0,9.9,87.7,1010.2,313.5,2.5,5.5,335.9,0.00,8.0,12.3,"07:23:56",1
"18/11/22","07:40",0.0,9.9,88.3,1010.2,330.1,2.6,3.2,333.2,0.00,8.1,12.4,"07:38:44",1
"18/11/22","07:50",0.0,9.8,88.9,1010.2,330.3,2.0,2.7,323.1,0.00,8.1,12.3,"07:41:30",1
"18/11/22","08:00",0.0,9.9,89.2,1010.2,324.9,2.6,3.3,336.8,0.00,8.2,12.4,"07:57:02",1
"18/11/22","08:10",0.0,10.0,89.5,1010.4,324.0,2.0,2.5,326.9,0.00,8.4,12.3,"08:06:14",1
"18/11/22","08:20",0.2,10.0,89.7,1010.2,316.8,1.7,2.4,314.1,0.01,8.4,12.5,"08:13:02",1
"18/11/22","08:30",0.0,10.0,90.2,1010.0,278.6,1.1,1.6,248.1,0.00,8.5,12.4,"08:23:28",1
"18/11/22","08:40",0.0,10.1,90.3,1010.2,307.1,1.3,2.4,326.9,0.01,8.6,12.3,"08:39:44",1
"18/11/22","08:50",0.0,10.1,90.8,1010.4,318.0,2.0,3.1,321.6,0.02,8.7,12.5,"08:43:52",1
"18/11/22","09:00",0.0,10.1,90.8,1010.2,320.1,1.5,2.4,319.3,0.02,8.7,12.6,"08:52:24",1
"18/11/22","09:10",0.0,10.4,91.5,1010.0,320.3,1.5,2.0,315.4,0.07,9.1,12.5,"09:02:00",1
"18/11/22","09:20",0.0,10.6,91.4,1010.2,299.6,1.0,1.6,342.0,0.13,9.3,12.7,"09:10:32",1
"18/11/22","09:30",0.0,10.9,90.4,1010.2,291.0,0.3,1.0,301.7,0.06,9.4,12.6,"09:20:02",1
"18/11/22","09:40",0.0,10.9,88.8,1010.4,326.2,0.8,1.8,338.0,0.09,9.2,12.6,"09:30:48",1
"18/11/22","09:50",0.0,11.2,88.2,1010.4,319.0,0.5,1.0,28.8,0.06,9.4,12.9,"09:49:20",1
"18/11/22","10:00",0.0,11.1,87.6,1010.9,169.5,0.5,1.1,107.2,0.05,9.2,12.7,"09:58:40",1
"18/11/22","10:10",0.0,11.1,87.5,1011.2,133.5,0.7,1.7,100.0,0.03,9.1,13.0,"10:03:28",1
"18/11/22","10:20",0.0,11.2,87.6,1010.9,318.6,1.1,1.9,331.9,0.03,9.3,13.0,"10:15:44",1
"18/11/22","10:30",0.0,11.2,87.1,1010.4,335.8,1.1,1.8,336.8,0.05,9.2,13.1,"10:23:20",1
"18/11/22","10:40",0.0,11.4,86.7,1010.7,306.8,1.0,1.8,312.6,0.06,9.3,13.0,"10:30:24",1
"18/11/22","10:50",0.0,11.4,85.8,1010.0,343.8,1.1,2.4,315.1,0.07,9.1,13.1,"10:45:36",1
"18/11/22","11:00",0.0,11.7,85.5,1010.0,332.0,1.2,2.4,330.8,0.06,9.4,13.1,"10:58:24",1
"18/11/22","11:10",0.0,12.1,84.2,1009.3,316.1,1.7,3.6,338.7,0.10,9.6,13.3,"11:05:36",1
"18/11/22","11:20",0.0,12.4,80.9,1009.7,299.4,1.6,3.3,327.0,0.14,9.3,13.2,"11:10:24",1
"18/11/22","11:30",0.0,12.7,79.2,1010.0,281.8,1.5,2.7,252.0,0.10,9.2,13.4,"11:25:04",1
"18/11/22","11:40",0.0,12.5,79.2,1009.7,282.8,1.8,3.4,304.2,0.08,9.0,13.4,"11:36:24",1
"18/11/22","11:50",0.0,12.3,80.0,1009.7,299.0,2.6,5.9,337.6,0.07,9.0,13.4,"11:45:52",1
"18/11/22","12:00",0.0,12.3,80.9,1009.5,281.4,2.2,4.1,316.6,0.12,9.2,13.4,"11:52:48",1
"18/11/22","12:10",0.0,12.7,81.2,1009.0,286.0,2.0,3.3,300.8,0.17,9.6,13.5,"12:04:08",1
"18/11/22","12:20",0.0,12.9,80.8,1009.0,298.4,2.3,5.9,346.7,0.21,9.7,13.5,"12:16:48",1
"18/11/22","12:30",0.0,12.9,80.1,1008.8,290.9,2.7,5.2,292.8,0.20,9.6,13.6,"12:26:40",1
"18/11/22","12:40",0.0,12.8,80.3,1009.0,288.4,2.3,5.0,344.0,0.16,9.5,13.7,"12:31:04",1
"18/11/22","12:50",0.0,13.0,79.8,1008.8,278.4,2.2,4.5,236.1,0.19,9.6,13.8,"12:46:48",1
"18/11/22","13:00",0.0,13.2,79.1,1008.8,283.3,2.2,4.0,267.3,0.17,9.7,13.8,"12:52:48",1
"18/11/22","13:10",0.0,14.0,77.6,1008.6,271.0,2.5,3.5,239.2,0.41,10.2,14.0,"13:02:32",1
"18/11/22","13:20",0.0,13.8,76.8,1008.3,277.3,2.3,5.0,318.7,0.16,9.8,14.1,"13:12:08",1
"18/11/22","13:30",0.0,14.3,75.6,1008.1,276.5,2.1,3.9,268.3,0.23,10.1,14.2,"13:28:16",1
"18/11/22","13:40",0.0,14.1,75.8,1008.3,291.7,2.1,3.7,236.2,0.11,9.9,14.2,"13:31:20",1
"18/11/22","13:50",0.0,14.1,73.4,1008.3,328.0,2.5,6.7,342.7,0.14,9.5,14.4,"13:41:20",1
"18/11/22","14:00",0.0,13.9,73.2,1008.3,312.6,3.0,8.0,326.8,0.15,9.2,14.5,"13:58:16",1
"18/11/22","14:10",0.0,13.7,74.9,1008.6,322.7,3.1,5.6,332.0,0.13,9.4,14.5,"14:02:56",1
"18/11/22","14:20",0.0,14.4,73.5,1008.8,307.5,1.8,4.0,343.0,0.26,9.8,14.5,"14:14:24",1
"18/11/22","14:30",0.0,14.0,73.7,1008.6,299.7,2.1,4.3,244.8,0.13,9.4,14.7,"14:20:32",1
"18/11/22","14:40",0.0,13.7,75.7,1008.6,303.7,2.5,5.8,322.8,0.15,9.5,14.7,"14:37:04",1
"18/11/22","14:50",0.0,13.6,76.6,1009.0,305.8,2.0,4.7,333.6,0.13,9.6,14.6,"14:43:52",1
"18/11/22","15:00",0.0,13.7,74.8,1008.8,289.9,2.0,4.0,285.8,0.10,9.4,14.7,"14:51:36",1
"18/11/22","15:10",0.0,13.3,74.7,1008.8,306.5,2.6,5.1,340.8,0.03,8.9,14.5,"15:03:28",1
"18/11/22","15:20",0.0,12.7,77.3,1009.3,291.3,2.0,3.2,339.0,0.02,8.9,14.6,"15:14:48",1
"18/11/22","15:30",0.0,12.1,79.9,1009.3,286.8,1.7,3.4,260.0,0.03,8.8,14.5,"15:28:00",1
"18/11/22","15:40",0.0,12.0,81.1,1009.5,282.5,1.8,4.7,283.4,0.03,8.9,14.4,"15:30:32",1
"18/11/22","15:50",0.0,12.0,80.5,1009.5,295.4,1.8,3.3,321.0,0.01,8.8,14.4,"15:41:04",1
"18/11/22","16:00",0.0,12.7,78.0,1009.7,294.0,1.8,3.4,317.7,0.07,9.0,14.4,"15:59:52",1
"18/11/22","16:10",0.0,12.6,75.6,1010.2,299.4,2.1,4.5,320.2,0.05,8.4,14.3,"16:01:12",1
"18/11/22","16:20",0.0,12.1,74.4,1009.7,332.5,2.6,6.0,323.4,0.00,7.7,14.3,"16:14:40",1
"18/11/22","16:30",0.0,12.0,74.6,1010.0,294.2,1.2,2.5,220.8,0.00,7.7,14.3,"16:28:52",1
"18/11/22","16:40",0.0,11.8,74.4,1010.0,274.0,1.7,3.1,299.1,0.00,7.4,14.2,"16:33:30",1
"18/11/22","16:50",0.0,11.6,74.0,1010.2,305.6,1.6,4.4,306.6,0.00,7.2,14.1,"16:47:26",1
"18/11/22","17:00",0.0,11.4,74.1,1010.4,312.0,2.8,5.2,304.4,0.00,7.0,14.0,"16:55:42",1
"18/11/22","17:10",0.0,11.3,73.7,1010.2,304.0,2.3,5.1,343.1,0.00,6.8,14.0,"17:00:08",1
"18/11/22","17:20",0.0,11.2,74.0,1010.7,297.4,2.5,6.0,233.2,0.00,6.8,13.6,"17:10:24",1
"18/11/22","17:30",0.0,11.1,74.7,1011.2,292.0,1.8,4.2,351.2,0.00,6.8,13.7,"17:23:20",1
"18/11/22","17:40",0.0,11.0,74.8,1010.9,310.7,3.4,7.5,335.4,0.00,6.7,13.7,"17:37:48",1
"18/11/22","17:50",0.0,10.9,74.3,1011.2,302.6,2.7,6.4,316.6,0.00,6.6,13.4,"17:43:04",1
"18/11/22","18:00",0.0,10.8,73.9,1011.2,302.9,2.3,3.6,339.5,0.00,6.4,13.3,"17:50:08",1
"18/11/22","18:10",0.0,10.6,74.3,1011.4,298.6,2.0,3.4,340.7,0.00,6.3,13.5,"18:02:56",1
"18/11/22","18:20",0.0,10.5,74.0,1011.4,295.1,2.2,5.7,316.1,0.00,6.1,13.3,"18:17:28",1
"18/11/22","18:30",0.0,10.5,72.5,1011.6,314.2,3.0,5.4,326.4,0.00,5.8,13.2,"18:25:36",1
"18/11/22","18:40",0.0,10.5,71.2,1011.9,301.9,3.4,6.4,323.5,0.00,5.6,13.1,"18:34:40",1
"18/11/22","18:50",0.0,10.5,70.4,1011.6,300.5,3.5,6.4,314.5,0.00,5.4,13.2,"18:46:08",1
"18/11/22","19:00",0.0,10.2,71.1,1011.9,289.4,2.1,4.2,336.9,0.00,5.2,13.1,"18:53:22",1
"18/11/22","19:10",0.0,10.1,71.9,1012.1,287.0,2.7,6.6,324.1,0.00,5.3,12.9,"19:06:48",1
"18/11/22","19:20",0.0,10.2,71.7,1012.6,314.1,3.5,6.8,327.8,0.00,5.4,12.9,"19:14:40",1
"18/11/22","19:30",0.0,10.0,72.2,1012.6,280.2,2.7,6.4,319.2,0.00,5.3,12.9,"19:23:36",1
"18/11/22","19:40",0.0,9.9,72.3,1012.3,288.7,2.6,6.2,316.4,0.00,5.2,12.7,"19:31:20",1
"18/11/22","19:50",0.0,9.8,71.4,1012.8,299.8,3.1,8.8,325.8,0.00,4.9,12.7,"19:40:08",1
"18/11/22","20:00",0.0,9.7,70.3,1012.6,303.2,2.8,9.0,336.1,0.00,4.6,12.7,"19:53:28",1
"18/11/22","20:10",0.0,9.7,69.4,1012.6,315.2,3.7,7.4,337.3,0.00,4.4,12.6,"20:07:04",1
"18/11/22","20:20",0.0,9.6,69.5,1012.8,302.8,3.4,6.8,330.9,0.00,4.3,12.5,"20:15:20",1
"18/11/22","20:30",0.0,9.4,70.6,1012.8,300.4,2.8,6.6,338.6,0.00,4.4,12.2,"20:22:32",1
"18/11/22","20:40",0.0,9.2,70.0,1012.8,294.5,2.6,5.1,328.9,0.00,4.1,12.3,"20:30:08",1
"18/11/22","20:50",0.0,9.0,71.0,1013.0,289.0,1.8,3.5,319.2,0.00,4.1,12.1,"20:41:20",1
"18/11/22","21:00",0.0,8.8,72.7,1013.0,284.8,2.7,5.5,326.3,0.00,4.2,12.1,"20:54:00",1
"18/11/22","21:10",0.0,8.6,72.9,1012.8,283.4,1.8,3.3,329.0,0.00,4.1,12.0,"21:06:40",1
"18/11/22","21:20",0.0,8.6,73.8,1013.0,268.4,2.2,5.8,233.2,0.00,4.2,12.0,"21:17:44",1
"18/11/22","21:30",0.0,8.7,72.9,1013.5,278.3,2.5,5.1,330.0,0.00,4.2,12.0,"21:29:44",1
"18/11/22","21:40",0.0,8.5,72.4,1013.3,286.5,1.6,4.5,326.4,0.00,3.9,11.8,"21:31:04",1
"18/11/22","21:50",0.0,8.5,73.1,1013.8,286.3,2.2,5.4,260.0,0.00,4.0,11.8,"21:46:00",1
"18/11/22","22:00",0.0,8.3,72.8,1013.8,272.3,1.8,3.7,241.9,0.00,3.8,11.9,"21:58:00",1
"18/11/22","22:10",0.0,8.2,73.5,1013.8,262.2,2.2,3.7,257.7,0.00,3.8,11.8,"22:05:12",1
"18/11/22","22:20",0.0,8.0,73.1,1013.8,274.9,1.8,3.5,234.1,0.00,3.5,11.8,"22:16:32",1
"18/11/22","22:30",0.0,8.0,74.3,1014.0,285.7,2.3,4.7,268.6,0.00,3.8,11.7,"22:26:16",1
"18/11/22","22:40",0.0,8.0,74.0,1013.5,283.7,2.3,4.1,332.5,0.00,3.7,11.6,"22:39:44",1
"18/11/22","22:50",0.0,7.9,73.8,1013.8,275.4,2.0,2.7,307.8,0.00,3.6,11.5,"22:40:40",1
"18/11/22","23:00",0.0,7.8,74.5,1013.8,276.0,2.0,4.0,283.8,0.00,3.6,11.6,"22:56:40",1
"18/11/22","23:10",0.0,7.9,73.7,1014.0,282.5,2.1,4.1,237.6,0.00,3.5,11.5,"23:07:12",1
"18/11/22","23:20",0.0,8.2,72.8,1013.5,273.9,2.6,5.5,242.1,0.00,3.7,11.4,"23:16:40",1
"18/11/22","23:30",0.0,8.1,72.6,1014.0,278.7,2.6,4.4,265.1,0.00,3.5,11.4,"23:23:04",1
"18/11/22","23:40",0.0,7.7,73.7,1014.0,244.9,2.0,3.5,238.3,0.00,3.3,11.3,"23:32:00",1
"18/11/22","23:50",0.0,7.6,73.8,1014.5,273.3,2.0,4.3,311.4,0.00,3.3,11.1,"23:48:08",1
"18/11/22","24:00",0.0,7.8,73.9,1014.0,263.3,2.3,4.5,237.5,0.00,3.5,11.3,"23:52:24",1
